TimeEST,TemperatureF,Dew PointF,Humidity,Sea Level PressureIn,VisibilityMPH,Wind Direction,Wind SpeedMPH,Gust SpeedMPH,PrecipitationIn,Events,Conditions,WindDirDegrees,DateUTC
12:51 AM,19.0,10.9,71,30.24,10.0,North,6.9,-,N/A,,Clear,350,2013-02-21 05:51:00
1:51 AM,18.0,10.9,74,30.24,10.0,North,8.1,-,N/A,,Clear,350,2013-02-21 06:51:00
2:51 AM,16.0,10.0,77,30.25,10.0,North,6.9,-,N/A,,Clear,350,2013-02-21 07:51:00
3:51 AM,15.1,10.0,80,30.26,10.0,NNW,5.8,-,N/A,,Clear,330,2013-02-21 08:51:00
4:51 AM,14.0,10.0,84,30.27,10.0,NNW,5.8,-,N/A,,Clear,330,2013-02-21 09:51:00
5:51 AM,12.9,9.0,84,30.29,10.0,NW,4.6,-,N/A,,Clear,320,2013-02-21 10:51:00
6:51 AM,12.2,8.6,85,30.16,10.0,WNW,4.6,-,N/A,,Clear,300,2013-02-21 11:51:00
7:51 AM,14.0,9.0,80,30.32,10.0,NNW,5.8,-,N/A,,Clear,340,2013-02-21 12:51:00
8:51 AM,16.0,10.0,77,30.34,10.0,NW,4.6,-,N/A,,Scattered Clouds,310,2013-02-21 13:51:00
9:51 AM,19.9,10.0,65,30.33,10.0,Variable,3.5,-,N/A,,Clear,0,2013-02-21 14:51:00
10:51 AM,23.0,10.9,60,30.32,10.0,NNW,4.6,-,N/A,,Clear,340,2013-02-21 15:51:00
11:51 AM,27.0,12.0,53,30.31,10.0,Variable,4.6,-,N/A,,Clear,0,2013-02-21 16:51:00
12:51 PM,30.0,12.9,49,30.27,10.0,Variable,4.6,-,N/A,,Clear,0,2013-02-21 17:51:00
1:51 PM,33.1,14.0,46,30.25,10.0,North,6.9,-,N/A,,Clear,360,2013-02-21 18:51:00
2:51 PM,36.0,15.1,43,30.23,10.0,North,8.1,-,N/A,,Clear,10,2013-02-21 19:51:00
3:51 PM,36.0,14.0,41,30.23,10.0,North,6.9,-,N/A,,Clear,10,2013-02-21 20:51:00
4:51 PM,34.0,14.0,44,30.25,10.0,NE,5.8,-,N/A,,Clear,50,2013-02-21 21:51:00
5:51 PM,33.1,12.9,43,30.27,10.0,NE,4.6,-,N/A,,Clear,40,2013-02-21 22:51:00
6:51 PM,30.9,12.9,47,30.29,10.0,Calm,Calm,-,N/A,,Clear,0,2013-02-21 23:51:00
7:51 PM,30.0,14.0,51,30.25,10.0,ENE,4.6,-,N/A,,Clear,60,2013-02-22 00:51:00
8:51 PM,32.0,15.1,50,30.24,10.0,ESE,3.5,-,N/A,,Clear,120,2013-02-22 01:51:00
9:51 PM,35.1,15.1,44,30.18,10.0,East,10.4,16.1,N/A,,Scattered Clouds,100,2013-02-22 02:51:00
10:51 PM,37.0,12.9,37,30.18,10.0,SE,9.2,-,N/A,,Overcast,130,2013-02-22 03:51:00
11:51 PM,37.0,12.9,37,30.21,10.0,SSE,9.2,16.1,N/A,,Overcast,150,2013-02-22 04:51:00